Погода в Кичибухино

Россия / Ярославская область     56°40′57″N   38°57′34″E
темп.,
°C
ветер,
м/с
пор.,
м/с
влажн.,
%
обл.,
%
осадки,
мм/ч
давл.,
гПа
погр.,
м
12 апреля, пн
пн1200:00+6ю498227 0.0 1033119
03:00+5ю34825 0.0 103460
06:00+4юв228545 0.0 103522
09:00+8вюв4873100 0.0 1035325
12:00+11вюв61065100 0.0 1034672
15:00+13вюв61061100 0.0 1033897
18:00+10вюв61271100 0.0 1031658
21:00+8юв61377100 0.0 1031431
13 апреля, вт
вт1300:00+6юв5128975 0.0 1030294
03:00+5юв41096100 0.0 1029203
06:00+5ююв31195100 0.0 1028204
09:00+12ююв5127160 0.0 1026352
12:00+17ю6114984 0.0 1026800
15:00+18ю694399 0.0 10251277
18:00+16ю495090 0.0 1024216
21:00+11ю4106768 0.0 1025151
14 апреля, ср
ср1400:00+10ю376887 0.0 1024109
03:00+9ю41071100 0.0 1024173
06:00+8ю4117317 0.0 1023168
09:00+13ю5105557 0.0 1023316
12:00+17ю684211 0.0 1021841
15:00+19ю5735100 0.0 10201690
18:00+16ю354984 0.0 101999
21:00+11ю356011 0.0 102066
15 апреля, чт
чт1500:00+10ю366791 0.0 101976
03:00+9ю3368100 0.0 101934
06:00+8ююв237178 0.0 101927
09:00+12ююв2357100 0.0 1019235
12:00+16юв2345100 0.0 1018634
15:00+18ююв2240100 0.0 10171433
18:00+16вюв1151100 0.0 101611
21:00+11ссв3469100 0.0 101779
16 апреля, пт
пт1600:00+8св499298 0.0 1018257
03:00+6ссв4993100 0.0 1018291
06:00+6ссв51190100 0.0 1019411
09:00+6св71186100 0.0 1020583
12:00+5св61290100 0.3 1022652
15:00+10св71047100 0.4 10231256
18:00+9св711470 0.0 10241261
21:00+5св512590 0.0 1026346